| time (UTC) | temp C | wind direction | speed KPH | gust KPH | rain 1hr cm | rain 24hr cm | rain mn cm | humidity % | barometer mb |
| 20260504210041 | 26 | 186 | 3.2 | 12.9 | 0.00 | 0.00 | 0.00 | 26 | 1013.3 |
| 20260504204539 | 26 | 297 | 3.2 | 11.3 | 0.00 | 0.00 | 0.00 | 29 | 1013.5 |
| 20260504203102 | 26 | 153 | 4.8 | 14.5 | 0.00 | 0.00 | 0.00 | 27 | 1013.8 |
| 20260504201543 | 25 | 248 | 4.8 | 12.9 | 0.00 | 0.00 | 0.00 | 28 | 1014.0 |
| 20260504200046 | 26 | 121 | 1.6 | 8.0 | 0.00 | 0.00 | 0.00 | 27 | 1014.1 |
| 20260504194556 | 25 | 238 | 9.7 | 19.3 | 0.00 | 0.00 | 0.00 | 25 | 1014.3 |
| 20260504193051 | 26 | 205 | 1.6 | 6.4 | 0.00 | 0.00 | 0.00 | 26 | 1014.3 |
| 20260504191547 | 26 | 209 | 3.2 | 12.9 | 0.00 | 0.00 | 0.00 | 27 | 1014.5 |
| 20260504190058 | 26 | 272 | 1.6 | 8.0 | 0.00 | 0.00 | 0.00 | 26 | 1014.7 |
| 20260504184558 | 26 | 236 | 1.6 | 11.3 | 0.00 | 0.00 | 0.00 | 25 | 1015.0 |
| 20260504183042 | 26 | 231 | 1.6 | 8.0 | 0.00 | 0.00 | 0.00 | 26 | 1015.2 |
| 20260504181542 | 25 | 228 | 4.8 | 12.9 | 0.00 | 0.00 | 0.00 | 27 | 1015.4 |
| 20260504180053 | 24 | 153 | 1.6 | 12.9 | 0.00 | 0.00 | 0.00 | 28 | 1015.4 |
| 20260504174551 | 24 | 76 | 0.0 | 9.7 | 0.00 | 0.00 | 0.00 | 28 | 1015.3 |
| 20260504173049 | 24 | 260 | 1.6 | 12.9 | 0.00 | 0.00 | 0.00 | 28 | 1015.6 |
| 20260504171551 | 23 | 173 | 4.8 | 11.3 | 0.00 | 0.00 | 0.00 | 30 | 1015.8 |
| 20260504081541 | 5 | 0 | 0.0 | 0.0 | 0.00 | 0.00 | 0.00 | 92 | 1016.5 |
| 20260504044556 | 6 | 0 | 0.0 | 0.0 | 0.00 | 0.00 | 0.00 | 85 | 1016.8 |
| 20260504043044 | 6 | 0 | 0.0 | 0.0 | 0.00 | 0.00 | 0.00 | 85 | 1016.8 |
| 20260504041540 | 7 | 0 | 0.0 | 0.0 | 0.00 | 0.00 | 0.00 | 83 | 1017.0 |
| 20260504040050 | 7 | 0 | 0.0 | 0.0 | 0.00 | 0.00 | 0.00 | 82 | 1017.1 |
| 20260504034552 | 7 | 0 | 0.0 | 0.0 | 0.00 | 0.00 | 0.00 | 82 | 1017.1 |
| 20260504033054 | 7 | 0 | 0.0 | 0.0 | 0.00 | 0.00 | 0.00 | 80 | 1017.1 |
| 20260504031543 | 7 | 0 | 0.0 | 0.0 | 0.00 | 0.00 | 0.00 | 79 | 1017.2 |
| 20260504030041 | 7 | 0 | 0.0 | 0.0 | 0.00 | 0.00 | 0.00 | 79 | 1017.1 |
| 20260504024546 | 8 | 0 | 0.0 | 0.0 | 0.00 | 0.00 | 0.00 | 77 | 1017.0 |
| 20260504023048 | 8 | 0 | 0.0 | 0.0 | 0.00 | 0.00 | 0.00 | 75 | 1016.9 |
| 20260504021538 | 8 | 0 | 0.0 | 0.0 | 0.00 | 0.00 | 0.00 | 73 | 1016.6 |
| 20260504020043 | 9 | 0 | 0.0 | 0.0 | 0.00 | 0.00 | 0.00 | 70 | 1016.4 |
| 20260504014542 | 10 | 0 | 0.0 | 0.0 | 0.00 | 0.00 | 0.00 | 69 | 1016.4 |
| 20260504013048 | 10 | 0 | 0.0 | 0.0 | 0.00 | 0.00 | 0.00 | 68 | 1016.2 |
| 20260504011540 | 11 | 0 | 0.0 | 0.0 | 0.00 | 0.00 | 0.00 | 65 | 1016.0 |
| 20260504010051 | 11 | 0 | 0.0 | 0.0 | 0.00 | 0.00 | 0.00 | 61 | 1015.8 |
| 20260504004544 | 12 | 0 | 0.0 | 0.0 | 0.00 | 0.00 | 0.00 | 59 | 1015.7 |
| 20260504003043 | 13 | 0 | 0.0 | 0.0 | 0.00 | 0.00 | 0.00 | 54 | 1015.7 |
| 20260504001602 | 15 | 0 | 0.0 | 0.0 | 0.00 | 0.00 | 0.00 | 51 | 1015.6 |
| 20260504000044 | 16 | 0 | 0.0 | 0.0 | 0.00 | 0.00 | 0.00 | 47 | 1015.4 |
| 20260503234541 | 17 | 0 | 0.0 | 0.0 | 0.00 | 0.00 | 0.00 | 41 | 1015.4 |
| 20260503233038 | 18 | 0 | 0.0 | 1.6 | 0.00 | 0.00 | 0.00 | 36 | 1015.4 |
| 20260503231544 | 18 | 162 | 0.0 | 4.8 | 0.00 | 0.00 | 0.00 | 34 | 1015.5 |
| 20260503230044 | 20 | 211 | 1.6 | 4.8 | 0.00 | 0.00 | 0.00 | 31 | 1015.4 |
| 20260503224542 | 20 | 154 | 1.6 | 8.0 | 0.00 | 0.00 | 0.00 | 30 | 1015.5 |
| 20260503223049 | 20 | 216 | 0.0 | 11.3 | 0.00 | 0.00 | 0.00 | 30 | 1015.6 |
| 20260503221546 | 21 | 0 | 1.6 | 6.4 | 0.00 | 0.00 | 0.00 | 31 | 1015.7 |
| 20260503220105 | 20 | 298 | 1.6 | 11.3 | 0.00 | 0.00 | 0.00 | 30 | 1015.9 |
| 20260503214546 | 21 | 302 | 0.0 | 11.3 | 0.00 | 0.00 | 0.00 | 29 | 1015.9 |
| 20260503213049 | 21 | 313 | 0.0 | 6.4 | 0.00 | 0.00 | 0.00 | 31 | 1016.0 |
| 20260503211558 | 21 | 244 | 1.6 | 9.7 | 0.00 | 0.00 | 0.00 | 30 | 1016.1 |